Date,TemperatureHighF,TemperatureAvgF,TemperatureLowF,DewpointHighF,DewpointAvgF,DewpointLowF,HumidityHigh,HumidityAvg,HumidityLow,PressureMaxIn,PressureMinIn,WindSpeedMaxMPH,WindSpeedAvgMPH,GustSpeedMaxMPH,PrecipitationSumIn
2013-1-1,28,21,11,20,12,6,81,70,45,30.28,30.15,15,6,18,0.00
2013-1-2,27,17,10,15,10,6,85,75,52,30.31,30.21,19,5,19,0.00
2013-1-3,33,26,19,26,20,14,87,79,65,30.35,30.19,23,8,25,0.00
2013-1-4,35,23,13,26,18,10,88,82,67,30.34,30.25,26,9,26,0.00
2013-1-5,38,26,18,32,23,15,95,86,70,30.33,30.03,20,5,20,0.03
2013-1-6,35,27,19,33,24,18,93,87,78,30.41,29.99,24,8,28,0.00
2013-1-7,38,26,15,28,22,13,94,84,65,30.43,30.20,26,7,30,0.00
2013-1-8,42,32,23,34,28,21,92,85,71,30.25,30.11,19,6,22,0.00
2013-1-9,50,39,26,36,29,21,89,71,40,30.56,30.10,30,8,30,0.00
2013-1-10,44,34,23,41,29,20,97,82,57,30.56,29.93,26,6,26,0.44
2013-1-11,53,49,42,53,48,41,98,95,90,29.93,29.73,24,9,26,0.15
2013-1-12,53,43,32,49,40,30,93,87,79,30.01,29.78,25,8,28,0.10
2013-1-13,32,25,15,31,22,10,95,90,83,30.32,29.90,22,8,22,0.00
2013-1-14,24,17,12,18,13,9,91,83,71,30.54,30.32,15,3,15,0.00
2013-1-15,30,22,13,24,17,10,92,84,70,30.51,30.19,11,2,12,0.00
2013-1-16,36,28,17,29,23,15,93,82,66,30.19,29.94,29,7,29,0.00
2013-1-17,33,27,20,29,19,14,93,74,51,30.47,30.11,22,5,23,0.00
2013-1-18,41,31,18,31,24,14,90,78,65,30.50,30.03,33,10,33,0.00
2013-1-19,49,40,30,40,33,20,82,74,54,30.04,29.81,40,12,42,0.00
2013-1-20,30,19,14,20,10,6,74,65,56,30.35,29.97,33,10,34,0.00
2013-1-21,16,11,5,9,2,-3,83,68,53,30.37,30.22,29,12,33,0.00
2013-1-22,13,8,0,2,-1,-5,80,68,54,30.49,30.36,21,7,21,0.00
2013-1-23,22,17,12,14,8,2,78,67,59,30.44,30.19,25,7,26,0.00
2013-1-24,24,16,8,11,6,0,74,63,44,30.70,30.39,21,6,21,0.00
2013-1-25,29,24,19,23,18,10,88,77,66,30.47,30.06,20,6,22,0.04
2013-1-26,29,22,11,20,14,7,87,72,51,30.47,30.22,14,4,14,0.00
2013-1-27,38,29,22,37,25,18,96,84,71,30.46,29.99,19,7,23,0.09
2013-1-28,50,46,38,49,45,37,98,97,96,29.99,29.86,24,6,26,0.03
2013-1-29,61,57,48,59,56,48,99,96,92,29.86,29.41,30,11,38,1.51
2013-1-30,52,38,22,51,36,19,99,94,84,29.69,29.23,32,11,37,0.33
2013-1-31,22,15,6,19,10,1,89,80,74,30.25,29.69,32,16,37,0.00
2013-2-1,19,10,2,16,4,-2,89,78,69,30.47,30.25,22,9,26,0.00
2013-2-2,28,19,10,24,16,5,93,87,79,30.29,30.06,15,6,20,0.11
2013-2-3,23,18,10,20,14,6,92,84,75,30.15,30.04,20,6,24,0.04
2013-2-4,31,26,20,26,23,17,93,88,79,30.12,29.89,12,4,13,0.02
2013-2-5,33,26,15,30,23,13,94,89,86,30.15,29.86,22,6,22,0.00
2013-2-6,39,32,22,31,27,18,90,82,68,30.30,30.15,16,4,16,0.00
2013-2-7,43,35,31,39,33,29,97,93,80,30.18,29.88,20,4,21,0.53
2013-2-8,33,30,27,32,27,24,97,90,84,30.45,29.96,24,8,25,0.00
2013-2-9,36,31,28,31,27,23,91,84,78,30.45,30.15,16,5,16,0.00
2013-2-10,48,40,32,47,38,28,96,92,83,30.15,29.56,36,10,36,0.19
2013-2-11,45,35,30,40,28,24,83,76,73,30.10,29.60,37,18,40,0.00
2013-2-12,31,28,21,26,23,19,93,83,78,30.18,30.00,23,7,23,0.00
2013-2-13,45,33,21,36,29,20,96,84,67,30.00,29.78,18,4,19,0.00
2013-2-14,35,35,34,33,32,31,91,90,89,29.82,29.74,14,5,14,0.00
2013-2-16,24,19,12,15,9,5,75,66,56,30.27,30.17,21,8,23,0.00
2013-2-17,31,20,8,20,11,4,85,67,40,30.30,30.09,12,3,13,0.00
2013-2-18,54,40,26,45,34,20,95,81,65,30.10,29.49,30,11,31,0.24
2013-2-19,29,18,12,27,13,6,90,81,76,30.26,29.65,40,17,40,0.00
2013-2-20,26,17,8,18,11,3,86,77,67,30.43,30.26,19,7,20,0.00
2013-2-21,30,26,20,25,21,15,94,82,78,30.43,30.02,28,6,32,0.00
2013-2-22,34,29,25,33,27,23,97,93,86,30.02,29.88,23,9,25,0.36
2013-2-23,28,26,20,24,21,17,90,82,72,30.04,29.98,19,7,21,0.00
2013-2-24,36,26,17,26,21,14,92,81,64,30.22,30.04,9,2,10,0.00
2013-2-25,42,32,21,32,27,19,92,82,65,30.24,29.98,14,4,15,0.00
2013-2-26,35,34,33,32,30,27,96,88,72,29.98,29.52,30,8,30,0.67
2013-2-27,34,33,32,33,32,31,97,95,92,29.74,29.53,16,6,18,0.00
2013-2-28,36,33,30,33,30,25,96,90,83,30.10,29.74,18,7,21,0.05
2013-3-1,32,29,27,30,26,23,92,88,84,30.22,30.08,19,8,22,0.00
2013-3-2,33,27,19,24,22,15,89,81,67,30.23,30.18,19,7,20,0.00
2013-3-3,34,24,15,22,17,12,90,73,50,30.22,30.13,16,4,16,0.00
2013-3-4,34,28,20,29,24,17,91,83,69,30.19,30.03,16,5,19,0.00
2013-3-5,33,32,29,32,30,28,96,94,89,30.03,29.81,16,5,16,0.71
2013-3-6,34,31,28,30,28,26,93,89,83,30.35,29.99,22,8,24,0.05
2013-3-7,37,31,24,30,26,22,92,84,66,30.48,30.35,10,3,10,0.09
2013-3-8,39,29,20,30,25,19,94,84,67,30.55,30.36,13,3,13,0.01
2013-3-9,40,36,28,36,32,25,91,85,80,30.37,29.90,16,6,16,0.02
2013-3-10,52,44,38,49,42,35,97,94,85,29.92,29.61,25,5,32,0.89
2013-3-11,48,39,33,47,38,30,98,95,89,29.86,29.61,28,9,28,0.10
2013-3-12,39,32,28,32,28,23,94,82,65,30.08,29.86,28,12,29,0.05
2013-3-13,34,28,24,24,21,18,88,74,58,30.40,30.08,25,10,25,0.00
2013-3-14,36,30,24,32,26,20,95,85,64,30.40,30.14,12,4,13,0.01
2013-3-15,45,36,28,41,34,27,96,91,82,30.14,29.75,19,3,19,0.01
2013-3-16,39,34,31,35,31,26,97,88,79,30.16,29.70,21,6,22,0.00
2013-3-17,39,32,29,29,26,23,85,75,63,30.24,30.03,21,6,21,0.01
2013-3-18,36,31,24,34,28,16,96,88,72,30.03,29.68,33,9,36,0.04
2013-3-19,35,27,19,22,18,13,80,69,54,30.16,29.88,36,16,41,0.00
2013-3-20,27,22,16,20,13,8,84,66,55,30.17,30.09,28,13,30,0.00
2013-3-21,35,24,13,20,15,9,85,69,48,30.13,30.06,19,7,20,0.00
2013-3-22,42,30,19,23,20,15,87,68,43,30.13,30.05,16,4,18,0.00
2013-3-23,45,33,25,30,25,22,90,74,50,30.18,30.05,19,3,19,0.00
2013-3-24,37,33,30,30,28,26,94,81,68,30.06,29.65,29,8,29,0.02
2013-3-25,38,33,31,32,29,26,90,83,77,30.12,29.70,24,8,24,0.16
2013-3-26,42,35,28,31,28,25,90,76,52,30.30,30.12,19,6,19,0.00
2013-3-27,44,36,29,31,26,22,89,69,44,30.37,30.30,18,4,20,0.00
2013-3-28,51,38,26,32,26,22,85,63,41,30.41,30.31,15,4,19,0.00
2013-3-29,56,42,29,33,28,22,88,60,36,30.37,30.25,16,2,16,0.00
2013-3-30,59,46,30,42,34,22,82,65,47,30.28,29.90,22,6,22,0.00
2013-3-31,61,48,36,44,39,28,96,73,39,29.92,29.74,33,11,37,0.01
2013-4-1,43,35,27,29,22,17,81,61,39,30.23,29.91,23,8,26,0.00
2013-4-2,46,33,23,24,19,14,81,58,29,30.35,30.23,21,6,23,0.00
2013-4-3,48,35,23,27,20,15,77,57,29,30.50,30.35,16,3,18,0.00
2013-4-4,59,43,26,29,23,20,78,51,26,30.38,30.02,14,4,19,0.00
2013-4-5,51,42,35,33,28,23,87,60,37,30.25,30.03,19,6,28,0.00
2013-4-6,71,54,32,49,36,27,81,54,32,30.20,29.66,42,12,42,0.03
2013-4-7,63,51,41,49,42,35,88,73,45,29.97,29.68,29,8,29,0.00
2013-4-8,72,55,41,58,49,36,96,79,56,29.99,29.70,35,10,35,0.38
2013-4-9,78,56,44,63,50,42,93,80,51,30.00,29.81,30,8,31,0.00
2013-4-10,48,43,41,47,42,39,97,95,92,29.98,29.77,25,7,28,1.02
2013-4-11,54,47,40,54,45,38,98,95,88,29.89,29.60,25,7,26,0.56
2013-4-12,45,40,37,41,36,33,92,85,78,29.92,29.63,31,11,31,0.02
2013-4-13,47,40,35,36,33,30,92,77,56,30.03,29.92,28,8,29,0.00
2013-4-14,74,54,40,56,44,35,85,70,47,30.04,29.71,30,8,30,0.00
2013-4-15,68,56,47,59,52,45,96,84,64,30.00,29.73,34,9,36,1.00
2013-4-16,57,48,43,47,42,36,96,81,55,30.29,29.95,16,5,16,0.30
2013-4-17,53,47,42,52,43,35,97,86,73,30.29,29.81,28,7,28,1.18
2013-4-18,66,57,43,64,56,38,98,95,80,29.85,29.45,34,10,34,2.45
2013-4-19,43,38,35,38,32,30,87,80,74,29.98,29.56,38,16,38,0.02
2013-4-20,48,38,31,32,28,25,88,68,48,30.48,29.98,20,7,23,0.00
2013-4-21,55,42,29,38,31,25,87,67,47,30.57,30.38,23,6,24,0.00
2013-4-22,68,52,35,46,39,32,88,65,35,30.38,30.08,16,5,20,0.00
2013-4-23,61,50,38,53,46,37,96,87,72,30.08,29.89,20,5,20,0.52
2013-4-24,50,42,37,39,35,32,95,79,51,30.20,29.94,24,7,24,0.04
2013-4-25,52,44,37,38,33,30,83,67,46,30.37,30.13,24,8,30,0.00
2013-4-26,68,51,34,48,40,30,86,68,48,30.41,30.30,25,6,26,0.00
2013-4-27,70,56,40,52,45,39,96,71,36,30.34,30.02,18,4,19,0.01
2013-4-28,64,57,53,57,54,51,97,90,75,30.02,29.85,10,2,12,0.04
2013-4-29,75,62,49,59,54,47,96,77,51,29.96,29.82,23,6,24,0.00
2013-4-30,86,69,56,64,58,52,88,70,41,29.97,29.84,25,9,31,0.00
2013-5-1,85,71,56,63,57,54,94,65,37,30.14,29.97,24,4,24,0.00
2013-5-2,64,54,43,56,47,39,87,77,61,30.20,30.11,24,6,24,0.00
2013-5-3,56,47,41,53,44,39,95,91,85,30.15,29.96,20,6,21,0.11
2013-5-4,54,54,53,52,51,50,92,91,89,30.04,30.03,3,1,3,0.00
2013-5-5,76,60,48,56,48,44,89,68,40,30.05,29.95,21,5,23,0.00
2013-5-6,75,62,49,51,45,40,79,57,32,30.04,29.96,19,5,19,0.00
2013-5-7,79,63,47,56,46,40,80,57,26,30.06,29.98,16,4,16,0.00
2013-5-8,82,66,51,60,51,45,81,60,37,30.05,29.96,10,2,12,0.00
2013-5-9,75,63,53,61,56,48,96,78,55,29.99,29.82,20,3,20,0.98
2013-5-10,61,52,45,60,49,42,97,93,86,30.01,29.78,20,6,20,0.00
2013-5-11,63,51,41,53,42,32,94,74,39,30.08,29.88,32,8,33,0.00
2013-5-12,57,46,36,37,32,28,82,60,36,30.16,30.07,22,7,24,0.00
2013-5-13,67,53,34,41,34,27,88,52,24,30.23,30.06,21,4,21,0.00
2013-5-14,90,72,54,62,51,40,63,50,26,30.06,29.68,22,8,23,0.00
2013-5-15,87,73,59,62,56,49,76,57,27,29.83,29.68,22,6,23,0.01
2013-5-16,83,69,54,54,49,40,86,53,24,29.97,29.82,15,3,16,0.00
2013-5-17,82,67,57,65,58,48,96,76,52,30.03,29.95,18,2,21,0.36
2013-5-18,81,69,60,69,63,59,98,83,60,30.08,29.95,14,3,15,0.00
2013-5-19,88,74,61,71,65,60,97,75,49,29.97,29.77,20,4,21,0.00
2013-5-20,90,78,64,69,64,56,95,65,33,29.83,29.71,37,9,38,1.11
2013-5-21,82,71,62,70,65,60,97,82,62,29.80,29.66,22,7,25,0.40
2013-5-22,74,68,62,67,62,56,95,83,56,29.77,29.62,22,7,22,0.27
2013-5-23,62,52,40,58,47,36,95,85,68,30.30,29.76,28,7,31,0.05
2013-5-24,62,49,37,46,38,34,92,69,43,30.46,30.29,14,4,16,0.00
2013-5-25,58,50,40,51,43,36,89,79,60,30.44,30.30,10,2,13,0.02
2013-5-26,67,56,44,55,49,40,95,80,53,30.33,30.14,18,4,18,0.29
2013-5-27,65,60,56,63,58,54,98,95,88,30.16,29.86,16,4,22,0.74
2013-5-28,78,68,62,71,66,61,98,91,77,29.92,29.73,30,6,38,0.18
2013-5-29,86,74,63,74,67,62,97,81,59,29.96,29.82,19,6,22,0.07
2013-5-30,83,73,64,75,68,62,96,82,66,29.96,29.81,29,8,33,0.54
2013-5-31,78,70,64,71,66,62,97,89,76,29.92,29.74,23,7,26,0.34
2013-6-1,76,68,62,69,64,60,95,88,77,29.78,29.66,30,7,30,0.64
2013-6-2,63,56,45,61,53,43,95,90,84,30.08,29.75,16,5,18,0.00
2013-6-3,69,55,42,54,46,40,98,74,48,30.16,30.06,10,1,10,0.00
2013-6-4,74,60,46,55,49,43,94,68,42,30.18,30.09,14,3,18,0.00
2013-6-5,78,66,55,59,53,49,85,66,41,30.10,29.91,14,4,15,0.00
2013-6-6,70,62,55,61,53,48,89,74,58,29.92,29.86,20,5,20,0.02
2013-6-7,72,61,52,59,51,42,91,72,45,29.95,29.89,16,4,18,0.00
2013-6-8,78,64,48,61,50,42,87,63,40,30.02,29.93,13,2,15,0.00
2013-6-9,83,71,58,64,58,49,88,65,44,30.02,29.81,20,4,22,0.01
2013-6-10,78,69,62,68,65,61,98,87,63,29.87,29.75,13,2,15,0.69
2013-6-11,86,73,59,72,65,58,98,80,47,29.95,29.80,13,2,16,0.11
2013-6-12,92,75,64,76,70,62,97,84,53,29.91,29.57,38,4,43,2.33
2013-6-13,77,67,57,65,60,53,97,80,54,30.05,29.63,22,6,22,0.05
2013-6-14,79,66,53,65,57,51,93,75,52,30.14,30.02,15,3,19,0.00
2013-6-15,80,69,59,71,64,55,95,85,67,30.08,29.89,24,3,32,0.15
2013-6-16,83,74,66,71,67,64,93,80,60,29.94,29.87,20,5,32,0.00
2013-6-17,88,75,64,69,63,56,97,70,35,29.95,29.85,14,3,16,0.00
2013-6-18,74,64,57,64,57,51,90,79,66,30.06,29.89,18,5,19,0.00
2013-6-19,84,69,57,62,56,51,87,65,43,30.15,30.05,13,3,13,0.00
2013-6-20,89,74,60,70,62,53,85,66,43,30.17,30.07,12,2,12,0.00
2013-6-21,87,74,65,72,66,62,91,80,57,30.14,29.89,28,5,30,0.03
2013-6-22,80,73,67,75,69,64,95,87,73,30.10,29.98,17,4,21,0.12
2013-6-23,87,74,66,76,69,64,96,86,65,30.07,29.94,23,4,24,0.71
2013-6-24,85,72,67,77,68,64,97,90,64,30.10,29.89,45,5,45,0.31
2013-6-25,88,76,67,78,71,65,97,85,67,29.97,29.81,21,6,23,0.01
2013-6-26,81,73,66,74,69,64,97,88,72,29.86,29.71,17,3,17,0.31
2013-6-27,90,77,65,76,69,64,97,79,53,29.79,29.69,21,6,25,0.00
2013-6-28,83,72,65,68,64,60,94,77,47,29.71,29.60,29,7,29,0.19
2013-6-29,72,66,63,67,63,57,97,90,74,29.75,29.59,17,4,18,0.06
2013-6-30,79,68,62,66,60,50,94,75,51,29.96,29.75,20,5,22,0.00
2013-7-1,75,67,58,63,58,54,90,71,55,30.04,29.96,23,5,23,0.00
2013-7-2,68,64,61,61,58,55,93,83,73,30.07,30.02,16,4,23,0.00
2013-7-3,74,66,59,68,62,58,97,89,74,30.09,30.01,14,3,14,0.00
2013-7-4,82,70,57,69,63,56,98,79,58,30.13,30.06,16,3,20,0.00
2013-7-5,86,73,59,71,65,58,97,78,56,30.11,30.02,13,2,15,0.00
2013-7-6,79,73,66,71,68,65,96,85,71,30.08,29.98,9,2,12,0.00
2013-7-7,88,77,67,76,70,65,96,81,61,30.04,29.96,15,4,16,0.00
2013-7-8,87,76,71,77,72,69,95,85,66,30.06,29.95,21,5,23,0.05
2013-7-9,85,78,73,79,75,72,96,89,77,30.01,29.88,32,4,32,0.07
2013-7-10,88,76,62,78,70,59,98,83,64,30.01,29.83,24,4,26,0.00
2013-7-11,81,69,60,66,58,53,94,71,41,30.10,30.00,0,0,0,0.00
2013-7-12,85,70,55,66,60,52,93,72,46,30.16,30.08,13,1,13,0.00
2013-7-13,85,73,59,68,63,57,94,73,48,30.17,30.10,13,2,15,0.00
2013-7-14,90,78,66,74,69,64,96,77,53,30.20,30.13,15,3,15,0.00
2013-7-15,93,81,71,79,73,68,96,79,57,30.26,30.19,14,2,14,0.00
2013-7-16,93,82,71,78,74,70,97,77,55,30.32,30.24,13,3,15,0.00
2013-7-17,95,84,71,78,73,69,95,73,50,30.32,30.17,14,3,14,0.00
2013-7-18,96,84,74,79,75,72,94,75,52,30.18,29.97,18,4,20,0.00
2013-7-19,96,85,75,78,74,71,92,71,47,29.97,29.77,26,7,29,0.00
2013-7-20,91,79,72,75,68,61,91,71,39,29.92,29.79,14,3,15,0.01
2013-7-21,88,77,67,73,69,66,96,78,53,29.95,29.84,16,3,17,0.00
2013-7-22,88,77,68,73,69,66,97,78,51,29.87,29.74,13,3,14,0.01
2013-7-23,83,71,60,71,64,55,93,78,63,29.96,29.68,34,6,34,0.00
2013-7-24,75,64,53,58,53,50,92,69,47,30.06,29.94,16,3,21,0.00
2013-7-25,81,67,52,62,56,50,93,69,42,30.12,30.03,9,2,10,0.00
2013-7-26,76,66,60,66,61,56,96,85,64,30.06,29.89,21,4,21,0.11
2013-7-27,70,62,56,66,56,49,96,81,58,29.94,29.87,29,6,29,0.01
2013-7-28,71,60,50,55,51,47,94,74,50,30.05,29.90,22,6,23,0.00
2013-7-29,79,64,52,61,55,49,91,74,50,30.18,30.04,16,4,17,0.00
2013-7-30,68,63,56,66,60,53,94,90,78,30.19,30.08,12,1,13,0.22
2013-7-31,76,69,65,69,66,63,96,90,79,30.08,29.95,13,2,14,0.06
2013-8-1,82,70,60,66,59,54,96,71,39,29.99,29.94,23,5,25,0.00
2013-8-2,85,71,60,73,65,56,96,84,63,29.96,29.84,22,4,22,0.39
2013-8-3,80,71,61,69,62,54,95,74,45,30.11,29.93,15,3,16,0.01
2013-8-4,79,68,56,63,57,53,93,72,47,30.18,30.10,15,2,16,0.00
2013-8-5,73,65,56,66,60,54,93,86,73,30.12,29.88,16,2,18,0.05
2013-8-6,83,72,64,73,68,62,96,88,70,29.92,29.84,16,3,16,0.01
2013-8-7,87,77,68,78,72,65,96,85,65,29.92,29.79,15,4,16,0.00
2013-8-8,80,71,65,66,62,55,92,74,54,30.00,29.92,16,3,22,0.00
2013-8-9,84,72,58,67,62,54,94,72,50,30.03,29.97,15,3,15,0.00
2013-8-10,86,73,62,68,62,56,95,71,43,30.11,30.03,17,2,17,0.00
2013-8-11,84,71,58,66,61,55,93,71,47,30.13,30.04,13,2,15,0.00
2013-8-12,85,74,62,72,66,60,96,78,55,30.05,29.85,16,4,21,0.28
2013-8-13,74,65,55,67,56,46,96,73,44,30.14,29.91,21,4,21,0.00
2013-8-14,73,61,52,58,53,49,92,76,49,30.23,30.14,13,2,15,0.00
2013-8-15,75,63,50,59,54,48,95,76,52,30.20,30.11,13,2,13,0.00
2013-8-16,81,68,57,63,56,51,90,68,38,30.19,30.12,13,1,16,0.00
2013-8-17,81,67,55,63,56,53,94,71,40,30.24,30.15,16,2,16,0.00
2013-8-18,84,70,58,65,60,56,96,73,42,30.20,30.09,12,1,12,0.00
2013-8-19,86,72,58,66,62,56,95,73,46,30.13,30.03,13,2,13,0.00
2013-8-20,88,74,62,70,65,60,96,75,47,30.13,30.03,15,2,18,0.00
2013-8-21,90,77,63,72,67,62,96,73,46,30.10,29.98,16,4,18,0.00
2013-8-22,75,70,65,70,68,64,97,94,78,30.13,29.99,21,3,21,1.81
2013-8-23,82,71,63,70,62,57,98,76,44,30.16,30.09,13,2,15,0.00
2013-8-24,85,71,58,66,61,55,90,73,49,30.26,30.16,14,2,16,0.00
2013-8-25,88,74,59,70,64,56,91,72,51,30.27,30.15,15,3,18,0.00
2013-8-26,89,77,64,76,69,61,92,79,63,30.17,30.01,20,4,20,0.00
2013-8-27,92,81,72,79,73,69,92,78,59,30.02,29.85,18,6,22,0.00
2013-8-28,85,78,70,76,70,66,93,78,68,30.02,29.83,17,5,23,0.00
2013-8-29,89,77,69,74,69,66,96,79,48,30.07,29.97,10,2,13,0.00
2013-8-30,93,77,66,80,70,65,95,82,55,29.98,29.76,28,4,34,0.49
2013-8-31,81,72,68,74,69,66,96,91,76,29.84,29.75,15,2,21,0.02
2013-9-1,83,73,66,72,69,64,98,87,65,29.80,29.73,15,3,15,0.11
2013-9-2,80,69,60,68,64,58,96,85,61,29.98,29.76,15,3,15,0.01
2013-9-3,76,65,57,61,57,54,95,78,53,30.09,29.97,13,3,15,0.00
2013-9-4,81,67,54,64,59,53,95,76,47,30.14,30.05,15,3,15,0.00
2013-9-5,78,68,60,65,58,50,91,74,54,30.23,30.11,14,3,15,0.00
2013-9-6,84,69,56,70,60,50,89,72,55,30.22,30.03,12,2,14,0.00
2013-9-7,87,73,61,69,64,60,96,77,48,30.03,29.89,18,3,18,0.00
2013-9-8,85,75,68,72,68,65,92,79,61,29.98,29.91,16,4,16,0.00
2013-9-9,94,79,65,78,71,63,96,77,52,29.95,29.82,16,4,18,0.00
2013-9-10,95,82,71,72,68,66,89,66,41,30.01,29.89,22,5,25,0.00
2013-9-11,92,79,71,74,70,66,93,74,47,30.04,29.96,20,5,22,0.05
2013-9-12,83,70,61,70,62,51,95,78,36,30.06,29.91,29,5,30,0.01
2013-9-13,68,58,49,58,50,45,94,75,51,30.15,30.05,20,4,23,0.00
2013-9-14,70,56,44,50,45,41,95,68,35,30.21,30.06,14,2,14,0.00
2013-9-15,68,58,50,59,53,44,95,83,63,30.15,29.97,15,3,15,0.17
2013-9-16,66,58,51,58,52,48,96,81,58,30.35,30.15,16,4,20,0.00
2013-9-17,72,59,47,58,52,45,93,77,55,30.35,30.13,15,2,17,0.00
2013-9-18,82,66,54,69,60,52,96,84,62,30.13,29.93,22,3,23,0.58
2013-9-19,90,75,65,75,69,63,96,84,54,29.99,29.80,16,5,21,0.02
2013-9-20,76,68,56,71,63,52,95,83,67,29.85,29.77,18,6,30,0.02
2013-9-21,68,57,49,54,49,45,95,77,51,29.95,29.81,16,4,23,0.01
2013-9-22,68,55,46,53,48,44,91,78,53,30.07,29.95,15,2,15,0.00
2013-9-23,71,56,44,52,47,41,92,73,42,30.13,30.03,13,2,13,0.00
2013-9-24,74,59,46,55,50,44,93,74,45,30.08,29.92,15,3,20,0.00
2013-9-25,75,61,49,56,52,47,93,74,46,29.97,29.91,13,2,16,0.00
2013-9-26,78,62,50,59,52,48,94,75,36,30.09,29.96,13,2,13,0.00
2013-9-27,81,65,51,60,51,46,91,65,36,30.17,30.06,16,2,17,0.00
2013-9-28,84,68,51,64,55,46,92,67,43,30.10,29.91,24,5,26,0.00
2013-9-29,72,60,49,64,54,47,96,81,53,30.05,29.92,18,4,20,0.16
2013-9-30,75,60,44,56,50,43,96,75,40,30.03,29.89,13,2,16,0.00
2013-10-1,78,68,56,67,62,53,96,84,65,29.99,29.91,21,6,21,0.00
2013-10-2,82,70,62,66,61,52,96,76,45,30.08,29.98,15,2,17,0.00
2013-10-3,78,68,62,72,66,59,97,93,78,29.99,29.85,28,3,41,1.44
2013-10-4,84,71,63,73,67,62,97,88,60,29.99,29.91,12,2,15,0.00
2013-10-5,82,71,66,74,68,65,97,91,70,29.95,29.76,15,4,20,1.34
2013-10-6,68,55,46,67,49,42,97,81,56,29.80,29.70,22,6,28,0.22
2013-10-7,66,53,44,50,46,42,95,79,51,30.11,29.79,20,6,22,0.01
2013-10-8,74,57,44,56,48,42,96,74,40,30.22,30.11,9,1,10,0.00
2013-10-9,71,57,44,52,47,43,95,73,39,30.27,30.14,13,1,14,0.00
2013-10-10,74,60,46,58,51,43,93,75,50,30.19,30.06,10,1,10,0.00
2013-10-11,77,61,51,58,52,47,90,73,49,30.10,29.97,14,2,16,0.00
2013-10-12,73,61,52,65,55,45,92,81,66,30.19,29.99,17,4,20,0.00
2013-10-13,65,53,43,47,42,34,90,70,34,30.42,30.19,15,3,16,0.00
2013-10-14,64,51,40,48,44,38,95,77,48,30.42,30.16,16,3,20,0.00
2013-10-15,63,56,48,62,53,44,96,89,81,30.16,29.81,17,5,18,0.18
2013-10-16,54,50,43,48,45,40,93,84,76,29.98,29.89,21,6,21,0.00
2013-10-17,55,48,40,48,44,37,94,86,69,29.97,29.86,22,4,22,0.12
2013-10-18,50,44,38,44,40,36,95,86,72,30.01,29.88,18,5,26,0.00
2013-10-19,54,47,42,42,39,35,93,75,50,29.98,29.83,24,6,30,0.02
2013-10-20,66,52,39,49,42,36,92,71,47,29.92,29.76,25,6,25,0.00
2013-10-21,55,46,33,48,37,26,89,73,53,30.01,29.83,24,7,28,0.05
2013-10-22,43,35,29,36,31,25,94,85,64,30.04,29.95,8,2,9,0.07
2013-10-23,45,37,30,36,32,28,95,81,58,30.07,29.93,21,6,22,0.00
2013-10-24,43,39,36,33,30,25,86,70,51,30.34,30.06,20,7,22,0.00
2013-10-25,50,39,28,34,29,24,88,70,48,30.47,30.13,20,6,23,0.00
2013-10-26,55,45,37,40,34,30,78,64,50,30.14,29.90,28,9,28,0.00
2013-10-27,54,42,30,36,32,26,91,69,45,30.12,30.02,18,4,20,0.00
2013-10-28,60,44,30,46,37,27,92,79,53,30.36,30.10,15,2,15,0.00
2013-10-29,55,44,36,46,40,34,93,86,64,30.38,30.17,13,3,13,0.01
2013-10-30,64,53,44,63,52,42,97,95,90,30.17,29.80,25,3,28,2.29
2013-10-31,64,59,47,63,58,44,97,95,91,29.80,29.22,29,10,31,0.61
2013-11-1,52,47,45,44,43,42,94,87,73,29.77,29.42,28,9,30,0.03
2013-11-2,50,43,37,44,40,36,96,89,71,30.17,29.76,18,4,20,0.01
2013-11-3,54,42,32,42,37,30,96,83,58,30.33,30.16,14,2,15,0.00
2013-11-4,57,49,41,45,42,37,90,77,60,30.32,30.16,24,8,28,0.00
2013-11-5,56,52,50,52,48,45,94,86,76,30.31,30.00,21,6,21,0.04
2013-11-6,56,48,34,55,45,31,96,92,85,30.19,29.84,36,11,37,1.02
2013-11-7,45,35,30,37,31,27,92,84,65,30.31,30.20,24,6,24,0.01
2013-11-8,49,39,29,37,32,27,94,79,57,30.39,30.03,25,5,25,0.00
2013-11-9,59,50,42,44,39,34,81,68,52,30.15,29.93,34,13,34,0.00
2013-11-10,48,40,32,35,32,28,87,73,58,30.37,30.15,29,7,29,0.00
2013-11-11,47,38,25,40,33,20,93,81,69,30.51,30.13,22,7,24,0.14
2013-11-12,34,26,22,25,20,18,84,78,61,30.73,30.51,18,7,18,0.00
2013-11-13,38,29,19,26,21,15,87,73,54,30.66,30.26,24,9,26,0.00
2013-11-14,51,39,30,32,27,23,76,63,46,30.26,30.02,24,10,25,0.00
2013-11-15,48,42,37,39,34,29,87,74,60,30.05,29.98,17,6,20,0.00
2013-11-16,60,54,38,57,52,34,95,91,84,30.00,29.62,36,12,36,0.20
2013-11-17,68,58,43,64,55,38,96,88,74,29.77,29.20,50,16,51,0.42
2013-11-18,44,38,30,38,32,26,86,78,62,30.29,29.77,34,12,37,0.00
2013-11-19,42,32,24,34,28,21,91,83,67,30.41,30.29,10,3,13,0.00
2013-11-20,44,36,28,38,32,25,93,84,67,30.34,30.12,23,5,23,0.15
2013-11-21,49,45,40,46,43,38,96,92,85,30.21,30.14,15,3,16,0.34
2013-11-22,46,38,27,45,35,24,96,89,77,30.51,30.19,21,6,21,0.00
2013-11-23,27,22,14,24,15,7,90,73,56,30.75,30.47,23,9,26,0.00
2013-11-24,27,18,11,14,10,6,84,68,42,30.79,30.48,15,5,17,0.00
2013-11-25,32,28,20,27,21,13,88,76,61,30.48,30.15,30,9,30,0.00
2013-11-26,36,30,18,30,24,9,86,79,63,30.18,30.04,24,7,26,0.00
2013-11-27,28,20,13,16,12,7,79,69,57,30.33,30.17,22,8,23,0.00
2013-11-28,35,27,20,21,18,15,83,68,54,30.54,30.24,25,6,25,0.00
2013-11-29,37,26,15,24,20,12,91,77,57,30.69,30.47,12,3,15,0.00
2013-11-30,50,36,26,34,28,22,89,74,52,30.47,30.11,20,5,22,0.00
2013-12-1,46,34,26,38,31,24,94,87,72,30.13,30.02,10,2,12,0.00
2013-12-2,42,37,33,35,32,30,94,84,66,30.02,29.78,16,4,18,0.10
2013-12-3,50,44,36,48,42,34,96,95,93,29.78,29.70,17,5,20,0.00
2013-12-4,56,50,42,55,48,38,97,96,87,29.77,29.54,30,7,30,0.00
2013-12-5,42,28,22,38,22,16,89,80,75,30.31,29.73,26,12,28,0.00
2013-12-6,22,19,12,16,13,8,83,76,69,30.59,30.27,15,6,16,0.00
2013-12-7,22,14,8,11,7,4,84,75,54,30.75,30.59,14,4,14,0.00
2013-12-8,26,20,12,24,16,8,93,84,79,30.66,30.00,18,5,25,0.07
2013-12-9,26,18,4,24,14,-2,93,82,72,30.31,30.00,28,10,28,0.00
2013-12-10,24,13,-1,15,7,-5,84,75,62,30.38,30.13,28,9,32,0.00
2013-12-11,22,14,-2,17,9,-7,90,81,71,30.65,30.34,20,6,20,0.07
2013-12-12,22,10,-3,14,4,-8,88,78,68,30.64,30.30,20,6,24,0.00
2013-12-13,30,22,10,26,18,7,93,84,75,30.30,30.14,9,3,13,0.07
2013-12-14,31,29,21,28,26,18,94,90,87,30.14,29.90,15,6,17,0.16
2013-12-15,21,15,11,18,10,7,91,83,78,30.19,30.00,26,9,26,0.00
2013-12-16,22,18,13,18,14,8,92,86,78,30.21,30.08,16,3,17,0.04
2013-12-17,32,25,18,28,21,16,93,86,76,30.16,30.02,18,9,23,0.01
2013-12-18,36,24,13,32,19,10,88,80,70,30.24,29.91,21,8,28,0.00
2013-12-19,41,36,29,37,34,27,95,90,85,29.98,29.81,15,2,16,0.02
2013-12-20,40,36,33,38,35,32,96,96,95,29.83,29.73,15,2,15,0.17
2013-12-21,35,33,30,34,32,29,97,96,96,29.88,29.56,21,4,26,0.50
2013-12-22,34,32,27,33,30,24,96,94,87,30.16,29.58,20,7,20,0.09
2013-12-23,28,15,2,25,12,-3,91,85,75,30.54,30.16,22,11,24,0.00
2013-12-24,19,9,0,14,5,-4,86,82,75,30.66,30.44,20,7,20,0.00
2013-12-25,28,25,19,26,21,14,93,86,78,30.44,30.17,24,8,28,0.03
2013-12-26,35,27,15,30,22,11,91,83,76,30.37,30.17,26,8,28,0.00
2013-12-27,44,35,25,36,31,23,94,83,68,30.35,30.15,21,7,22,0.00
2013-12-28,51,40,33,40,34,30,89,80,66,30.15,29.89,21,8,22,0.00
2013-12-29,37,30,18,32,26,12,92,86,78,30.21,29.80,23,8,23,0.01
2013-12-30,18,12,5,12,7,0,88,79,70,30.39,30.21,16,5,16,0.04
2013-12-31,16,11,2,14,7,-2,89,86,79,30.45,30.24,14,4,15,0.03
2014-1-1,22,19,16,18,16,14,91,88,82,30.34,30.18,17,6,20,0.13
2014-1-2,23,16,1,19,12,-3,91,85,73,30.46,30.14,22,6,24,0.12